Location: Hutchins
(43.0916°N, 93.8811°W)
Time: 04:45:51
(UTC+00:00)

ACS3 Solar Sail - Pass Details

Date: 16 October 2024
Orbit: 961 x 1023 km, 97.5° (Epoch: 02 November)

Event Time Altitude Azimuth Distance (km) Brightness Sun altitude
Exits shadow 01:15:29 33° 102° (ESE) 1,677 2.5 -19.7°
Maximum altitude 01:17:17 39° 68° (ENE) 1,506 2.3 -20.0°
Drops below altitude 10° 01:23:10 10° 2° (N) 2,847 4.3 -21.1°
Sets 01:25:50 0° 355° (N) 3,799 5.1 -21.6°
